Погода Дивное

Погода Дивное : погода сейчас, прогноз погоды и архив. Всё, что Вы хотите узнать о погоде Дивное!

Хотите узнать прогноз погоды Дивное? Тогда Вам сюда: Погода Дивное

Поиск расширенной информации на нашем сайте:

Другие новости

Новости СМИ2

Главная страница сайта

Новости сайта

03.07.2017

Напоминаем, что на нашем специализированном сайте Метеоцентр.Азия вы можете получить высокодетализированные автоматические прогнозы погоды по пунктам России, СНГ и мира в авиационном формате (включающие направление и скорость ветра, видимость, явления погоды, количество и форму облачности, нижнюю и верхнюю границу облачности).


Погода Дивное - сегодня

Время (UTC), дата Ветер
(°,м/с) 
Видим.   Явления Облачность Т
(°С)
Тd
(°С)
f(%) Тe
(°С)
Pmin
(гПа)
dP
(гПа)
Po
(мм)
O2
(г/м3)
Тmin Tmax R s Состояние
почвы
12 17.02.18 090 (В) 4{10}  2000 м  дымка  10/0 средняя 
[Ac As]
+0.5 +0.2 98 -2  1023.9  -1.4  760  306           
15 17.02.18 100 (В) 1000 м  дымка  10/0 средняя 
[As trans]
+0.1 +0.1 100 -2  1023.4  -0.5  759  306    +0.8       
18 17.02.18 110 (В) 4{10}  0500 м  туман  ?/?  
+0 +0 100 -2  1022.9  -0.5  759  306           
21 17.02.18 110 (В) 4{10}  0500 м  туман  ?/?  
-0.3 -0.3 100 -3  1021.7  -1.2  758  306           
00 18.02.18 120 (ЮВ) 0500 м  туман  ?/?  
-1.2 -1.2 100 -4  1020.9  -0.9  757  307           
03 18.02.18 110 (В) 0500 м  туман  ?/?  
-1.6 -1.6 100 -3  1021  0.2  758  307  -1.7      равномерный
сухой снег
100% 
06 18.02.18 120 (ЮВ) 0500 м  переохл. туман [диам. гололёда 0 мм]  ?/?  
-1.3 -1.3 100 -3  1020.7  -0.3  757  307           
09 18.02.18 140 (ЮВ) 0500 м  туман  ?/?  
+0.4 +0.1 98 -1  1021  0.3  758  305           
12 18.02.18 060 (СВ) 2000 м  дымка{туман}  10/10 300 м 
[St]
+1.4 +0.7 95 +2  1019.8  -1.1  757  303           
15 18.02.18 тихо ()   0500 м  слаб. морось{туман}  ?/?  
+0.4 +0.4 100 1021.4  1.5  758  305    +1.8  0.0     
18 18.02.18 тихо ()   0500 м  слаб. морось{туман}  ?/?  
+0.4 +0.4 100 1021.9  0.5  758  305           
21 18.02.18 030 (СВ) 0500 м  слаб. морось{туман}  ?/?  
+0.1 +0.1 100 +1  1021.6  -0.4  758  305           
00 19.02.18 060 (СВ) 0500 м  слаб. морось{туман}  ?/?  
-0.1 -0.1 100 +1  1021.3  -0.3  758  305           
03 19.02.18 тихо ()   0500 м  слаб. морось{туман}  ?/?  
+0.1 +0.1 100 1021.2  -0.1  758  305  -0.1    0.0  равномерный
мокрый или
старый снег
100% 
06 19.02.18 130 (ЮВ) 0500 м  туман{морось}  ?/?  
+0.3 +0.3 100 1021.3  -0.1  758  305  -0.1         
09 19.02.18 160 (Ю) 1000 м  в посл. час туман  10/0 средняя 
[As trans]
+2.7 +2.7 100 +3  1020.7  -0.5  757  302           
12 19.02.18 020 (С) 4000 м  дымка  10/0 средняя 
[As trans]
+4 +1.8 86 +5  1020.4  -0.2  757  300           
15 19.02.18 360 (С) 2000 м  дымка  10/0 средняя 
[As trans]
+2.3 +2 98 +3  1021.3  0.8  758  302    +4.1  0.0     
18 19.02.18 240 (ЮЗ) 0500 м  слаб. морось{туман}  ?/?  
+1.9 +1.9 100 +3  1021.7  0.5  758  303           
21 19.02.18 290 (З) 0500 м  слаб. морось{туман}  ?/?  
+0.6 +0.6 100 1021.6  -0.2  758  305           
00 20.02.18 300 (СЗ) 0500 м  туман{морось}  ?/?  
+0.1 +0.1 100 -1  1021.3  -0.3  758  305           
03 20.02.18 130 (ЮВ) 4000 м  дымка  10/0 средняя 
[Ac As]
+0.8 -1.5 85 +1  1021.7  0.6  758  305  +0.6         
06 20.02.18 130 (ЮВ) 2000 м  дымка [диам. изморози 1 мм]  ясно 
-2.3 -3.3 93 -3  1026.9  -0.1  762  310  -5.7         
09 20.02.18 320 (СЗ) 4000 м  дымка  10/0 средняя 
[Ac As]
+0 -1.8 88 -1  1022.6  0.2  759  306           
12 20.02.18 340 (С) 10 км    9/0 средняя 
[Ac trans]
+0.9 -3.5 72 1022.1  -0.5  758  305           
Время (UTC), дата Ветер
(°,м/с) 
Видим.   Явления Облачность Т
(°С)
Тd
(°С)
f(%) Тe
(°С)
Pmin
(гПа)
dP
(гПа)
Po
(мм)
O2
(г/м3)
Тmin Tmax R s Состояние
почвы

Для получения пояснительной информации подведите курсор к названию столбца.

ПОГОДА Дивное - архив

Всё, что Вы хотите узнать о погоде Дивное - удобно и подробно!

Выберите нужную дату (начиная с 1 января 2015* года) и нажмите кнопку "Найти".
Будут отображены архивные сводки погоды по пункту Дивное, начиная с указанной даты.


Отображать данные в формате CSV (для использования в таблицах Excel)


Внимание! Наш архив погоды предназначен исключительно для личного некоммерческого использования в познавательных целях. Если Вам необходимы официальные справки о состоянии погоды (для производственных, юридических, коммерческих и т.п. целей), обращайтесь в органы Росгидромета.

*Примечание: данная дата относится к архиву по метеостанциям СССР (Россия, СНГ, Балтия).
Архив по метеостанциям Зарубежной Европы и Азии (кроме Китая) хранится 10 дней, по другим регионам земного шара (Китай, Африка, Америка, Австралия, Океания) - 1 день.

Дивное - район местоположения метеостанции


Название, широта, долгота, высота метеостанции:
Дивное 45.9°ш. 43.3°д. 87 м над ур. моря [Российская Федерация]

Дополнительная информация

В oтличие oт бoльшинства пoгoдных сайтoв мы публикуем пoдрoбную метеoинфoрмацию в детальнoм прoфессиoнальнoм фoрмате.

Характеристики температуры и влажнoсти вoздуха измеряются на высoте 2 м в тени вдали oт зданий и деревьев.
Скoрoсть ветра измеряется на высoте 10 м (на урoвне рoста челoвека скoрoсть ветра ниже в 1.5-2 раза). Если метеoстанция нахoдится в гoрoде или в лесу, тo скoрoсть ветра занижена на 2-4 м/с пo сравнению с oткрытым местoм. Скoрoсть ветра над акватoриями крупных рек и oзёр, а также на вершинах хoлмoв на 2-5 м/с выше, чем в oбычных услoвиях.
Атмoсфернoе давление в разных тoчках местнoсти мoжет значительнo oтличаться oт давления на метеoстанции, в зависимoсти oт услoвий рельефа (при пoдъёме на 10 м давление пoнижается примернo на 1 мм рт.ст.).